K5UBE Weather Reports


Display with metric or nautical units.
time (UTC)temp
F
wind
direction
speed
MPH
gust
MPH
rain 1hr
in
rain 24hr
in
rain mn
in
humidity
%
barometer
mb
20260505201210 75 304 3.0 4.0 0.00 0.00 0.00 27 1011.9
20260505200708 75 173 8.0 9.0 0.00 0.00 0.00 28 1011.9
20260505200204 74 159 4.0 10.0 0.00 0.00 0.00 28 1011.9
20260505195700 75 286 2.0 7.0 0.00 0.00 0.00 27 1012.0
20260505195158 74 210 1.0 3.0 0.00 0.00 0.00 27 1012.1
20260505194655 73 190 5.0 8.0 0.00 0.00 0.00 28 1012.1
20260505194151 73 180 2.0 3.0 0.00 0.00 0.00 29 1012.0
20260505193647 73 213 0.0 6.0 0.00 0.00 0.00 28 1012.1
20260505193144 74 294 3.0 6.0 0.00 0.00 0.00 28 1012.2
20260505192643 74 256 3.0 7.0 0.00 0.00 0.00 27 1012.3
20260505192141 74 34 1.0 4.0 0.00 0.00 0.00 27 1012.2
20260505191639 72 331 2.0 7.0 0.00 0.00 0.00 29 1012.3
20260505191137 73 356 3.0 6.0 0.00 0.00 0.00 28 1012.3
20260505190632 73 300 3.0 7.0 0.00 0.00 0.00 27 1012.4
20260505190127 70 359 6.0 10.0 0.00 0.00 0.00 30 1012.4
20260505185624 71 88 5.0 7.0 0.00 0.00 0.00 30 1012.6
20260505185120 72 14 2.0 6.0 0.00 0.00 0.00 29 1012.7
20260505184617 72 279 0.0 1.0 0.00 0.00 0.00 28 1012.9
20260505184114 72 258 2.0 3.0 0.00 0.00 0.00 28 1012.7
20260505183611 70 300 5.0 6.0 0.00 0.00 0.00 30 1012.9
20260505183109 70 313 4.0 9.0 0.00 0.00 0.00 31 1012.9
20260505182604 70 330 2.0 7.0 0.00 0.00 0.00 30 1012.9
20260505182101 69 80 4.0 6.0 0.00 0.00 0.00 31 1012.8
20260505181558 71 337 2.0 4.0 0.00 0.00 0.00 30 1013.1
20260505181055 72 354 2.0 6.0 0.00 0.00 0.00 30 1013.1
20260505180550 72 272 0.0 3.0 0.00 0.00 0.00 29 1013.3
20260505180049 70 342 2.0 3.0 0.00 0.00 0.00 30 1013.8
20260505175549 69 19 1.0 6.0 0.00 0.00 0.00 31 1013.3
20260505175046 68 342 7.0 9.0 0.00 0.00 0.00 32 1013.2
20260505174543 68 0 2.0 4.0 0.00 0.00 0.00 33 1013.3
20260505174039 68 198 1.0 3.0 0.00 0.00 0.00 32 1013.5
20260505173536 66 333 3.0 7.0 0.00 0.00 0.00 34 1013.3
20260505173033 65 312 0.0 2.0 0.00 0.00 0.00 35 1013.5
20260505172531 66 321 2.0 7.0 0.00 0.00 0.00 35 1013.6
20260505172027 66 0 3.0 8.0 0.00 0.00 0.00 35 1013.5
20260505171522 66 33 2.0 3.0 0.00 0.00 0.00 35 1013.5
20260505171019 66 5 1.0 6.0 0.00 0.00 0.00 35 1013.6
20260505170516 65 57 6.0 8.0 0.00 0.00 0.00 36 1013.3
20260505170012 65 38 2.0 9.0 0.00 0.00 0.00 36 1013.5
20260505165508 66 347 3.0 6.0 0.00 0.00 0.00 35 1013.5
20260505165004 65 58 11.0 11.0 0.00 0.00 0.00 37 1013.5
20260505164500 66 14 3.0 7.0 0.00 0.00 0.00 36 1013.2
20260505163958 65 3 4.0 6.0 0.00 0.00 0.00 37 1013.5
20260505163456 65 355 1.0 4.0 0.00 0.00 0.00 37 1013.5
20260505162955 64 13 7.0 8.0 0.00 0.00 0.00 37 1013.3
20260505162451 63 53 2.0 6.0 0.00 0.00 0.00 39 1013.7
20260505161948 63 345 4.0 8.0 0.00 0.00 0.00 39 1013.8
20260505161444 64 76 6.0 8.0 0.00 0.00 0.00 38 1013.7
20260505160942 64 330 5.0 8.0 0.00 0.00 0.00 39 1013.8
20260505160440 63 31 4.0 13.0 0.00 0.00 0.00 39 1013.9
20260505152916 62 348 3.0 7.0 0.00 0.00 0.00 43 1013.5
20260505152414 61 2 2.0 7.0 0.00 0.00 0.00 44 1013.6
20260505151913 61 51 2.0 6.0 0.00 0.00 0.00 43 1013.8
20260505151410 61 347 5.0 6.0 0.00 0.00 0.00 44 1013.7
20260505150907 60 37 2.0 10.0 0.00 0.00 0.00 45 1013.8
20260505150405 60 38 6.0 9.0 0.00 0.00 0.00 45 1013.9
20260505140334 57 4 3.0 13.0 0.00 0.00 0.00 52 1012.7
20260505130257 56 322 1.0 7.0 0.00 0.00 0.00 55 1012.0
20260505124748 57 22 3.0 8.0 0.00 0.00 0.00 54 1012.1
20260505124245 57 28 6.0 9.0 0.00 0.00 0.00 54 1011.8
20260505123740 58 345 4.0 10.0 0.00 0.00 0.00 52 1011.5
20260505123237 58 315 2.0 6.0 0.00 0.00 0.00 51 1011.8
20260505122734 58 312 6.0 9.0 0.00 0.00 0.00 51 1011.6
20260505122231 59 12 7.0 10.0 0.00 0.00 0.00 49 1011.4
20260505121728 59 332 2.0 4.0 0.00 0.00 0.00 48 1011.3
20260505121224 60 6 2.0 8.0 0.00 0.00 0.00 47 1011.3
20260505120721 60 54 3.0 6.0 0.00 0.00 0.00 44 1011.2
20260505120217 62 29 4.0 7.0 0.00 0.00 0.00 39 1011.1
20260505115715 63 341 2.0 6.0 0.00 0.00 0.00 36 1011.0
20260505115213 65 322 7.0 10.0 0.00 0.00 0.00 31 1010.9
20260505114711 65 355 2.0 7.0 0.00 0.00 0.00 31 1010.5
20260505114206 65 319 8.0 14.0 0.00 0.00 0.00 30 1010.5
20260505113703 65 1 4.0 8.0 0.00 0.00 0.00 30 1010.6
20260505113200 65 269 4.0 10.0 0.00 0.00 0.00 30 1010.4
20260505112656 65 299 4.0 8.0 0.00 0.00 0.00 30 1010.1
20260505112154 65 279 2.0 8.0 0.00 0.00 0.00 30 1009.8
20260505111653 65 313 2.0 6.0 0.00 0.00 0.00 29 1009.5
20260505111149 65 315 2.0 6.0 0.00 0.00 0.00 29 1009.9
20260505110646 65 236 2.0 6.0 0.00 0.00 0.00 29 1009.8
20260505110143 64 280 4.0 6.0 0.00 0.00 0.00 30 1010.1
20260505102119 63 318 2.0 3.0 0.00 0.00 0.00 30 1009.9
20260505101617 63 332 2.0 3.0 0.00 0.00 0.00 30 1010.2
20260505101113 63 216 4.0 8.0 0.00 0.00 0.00 30 1010.2
20260505100610 62 263 2.0 7.0 0.00 0.00 0.00 31 1010.2
20260505100107 62 223 2.0 6.0 0.00 0.00 0.00 31 1010.3
20260505095603 61 283 1.0 3.0 0.00 0.00 0.00 31 1009.9
20260505095059 61 190 1.0 4.0 0.00 0.00 0.00 32 1010.3
20260505094556 61 227 2.0 3.0 0.00 0.00 0.00 32 1010.2
20260505094052 61 312 3.0 7.0 0.00 0.00 0.00 31 1009.9
20260505093549 61 235 1.0 6.0 0.00 0.00 0.00 31 1010.1
20260505093046 61 291 0.0 2.0 0.00 0.00 0.00 32 1010.1
20260505092544 61 262 1.0 2.0 0.00 0.00 0.00 32 1009.7
20260505092042 61 329 3.0 6.0 0.00 0.00 0.00 32 1009.7
20260505091538 62 227 2.0 4.0 0.00 0.00 0.00 30 1009.8
20260505091037 64 267 1.0 1.0 0.00 0.00 0.00 29 1009.6
20260505090534 64 303 2.0 7.0 0.00 0.00 0.00 28 1009.5
20260505090032 65 312 2.0 6.0 0.00 0.00 0.00 27 1009.6
20260505085530 64 315 2.0 4.0 0.00 0.00 0.00 28 1009.6
20260505085028 64 210 3.0 4.0 0.00 0.00 0.00 28 1009.6
20260505084526 64 257 2.0 6.0 0.00 0.00 0.00 28 1009.6
20260505084023 63 297 1.0 8.0 0.00 0.00 0.00 29 1009.6
20260505083520 63 285 2.0 2.0 0.00 0.00 0.00 29 1009.6
20260505083017 63 266 1.0 2.0 0.00 0.00 0.00 29 1009.6
20260505082512 63 231 1.0 3.0 0.00 0.00 0.00 29 1009.5
20260505082009 64 235 0.0 4.0 0.00 0.00 0.00 29 1009.4
20260505081506 64 261 1.0 4.0 0.00 0.00 0.00 29 1009.4
20260505081003 64 312 2.0 4.0 0.00 0.00 0.00 29 1009.2
20260505080459 64 207 2.0 7.0 0.00 0.00 0.00 29 1009.4
20260505075955 64 266 2.0 4.0 0.00 0.00 0.00 29 1009.3
20260505075452 64 256 2.0 3.0 0.00 0.00 0.00 29 1009.4
20260505074949 63 243 1.0 3.0 0.00 0.00 0.00 30 1009.4
20260505074446 63 289 2.0 3.0 0.00 0.00 0.00 30 1009.5
20260505073943 64 251 2.0 3.0 0.00 0.00 0.00 30 1009.5
20260505073441 64 254 1.0 3.0 0.00 0.00 0.00 30 1009.8
20260505072938 64 241 4.0 6.0 0.00 0.00 0.00 29 1009.6
20260505072434 64 228 1.0 4.0 0.00 0.00 0.00 29 1009.3
20260505071930 64 234 2.0 2.0 0.00 0.00 0.00 29 1009.3
20260505071426 65 272 2.0 7.0 0.00 0.00 0.00 29 1009.5
20260505070925 65 18 3.0 7.0 0.00 0.00 0.00 29 1009.6
20260505070421 65 274 3.0 6.0 0.00 0.00 0.00 29 1009.6
20260505065916 65 242 1.0 3.0 0.00 0.00 0.00 29 1009.4
20260505065413 65 230 3.0 3.0 0.00 0.00 0.00 29 1009.6
20260505064910 65 268 1.0 4.0 0.00 0.00 0.00 29 1009.6
20260505064407 65 249 3.0 4.0 0.00 0.00 0.00 29 1009.5
20260505063906 65 273 1.0 3.0 0.00 0.00 0.00 29 1009.6
20260505063402 65 288 1.0 4.0 0.00 0.00 0.00 29 1009.6
20260505062858 65 261 1.0 4.0 0.00 0.00 0.00 29 1009.6
20260505062355 65 218 2.0 6.0 0.00 0.00 0.00 29 1009.5
20260505061852 66 248 1.0 3.0 0.00 0.00 0.00 28 1009.5
20260505061351 66 262 1.0 3.0 0.00 0.00 0.00 27 1009.7
20260505060848 66 214 2.0 4.0 0.00 0.00 0.00 27 1009.7
20260505060344 67 284 2.0 2.0 0.00 0.00 0.00 27 1009.5
20260505055840 67 284 1.0 3.0 0.00 0.00 0.00 26 1009.6
20260505055336 67 240 1.0 4.0 0.00 0.00 0.00 26 1009.8
20260505054834 67 335 1.0 3.0 0.00 0.00 0.00 26 1009.4
20260505054331 67 269 1.0 7.0 0.00 0.00 0.00 26 1009.7
20260505053829 67 278 1.0 4.0 0.00 0.00 0.00 26 1009.5
20260505053326 67 307 4.0 6.0 0.00 0.00 0.00 26 1009.6
20260505052822 68 280 3.0 4.0 0.00 0.00 0.00 25 1009.7
20260505052319 68 280 2.0 9.0 0.00 0.00 0.00 25 1009.7
20260505051817 68 269 3.0 6.0 0.00 0.00 0.00 25 1009.9
20260505051314 68 266 2.0 4.0 0.00 0.00 0.00 25 1009.8
20260505050812 68 57 1.0 4.0 0.00 0.00 0.00 25 1009.9
20260505050310 67 240 2.0 4.0 0.00 0.00 0.00 25 1010.1
20260505041740 69 257 2.0 7.0 0.00 0.00 0.00 24 1010.1
20260505041237 69 234 1.0 7.0 0.00 0.00 0.00 24 1009.8
20260505040734 69 337 2.0 7.0 0.00 0.00 0.00 24 1009.8
20260505040232 69 238 5.0 10.0 0.00 0.00 0.00 24 1009.8
20260505035729 69 304 5.0 9.0 0.00 0.00 0.00 24 1009.8
20260505035224 69 290 3.0 6.0 0.00 0.00 0.00 24 1009.8
20260505034721 69 222 2.0 6.0 0.00 0.00 0.00 24 1009.7
20260505034218 69 310 3.0 7.0 0.00 0.00 0.00 24 1009.7
20260505033715 69 238 1.0 4.0 0.00 0.00 0.00 24 1009.6
20260505033213 68 244 2.0 7.0 0.00 0.00 0.00 25 1009.8
20260505032711 68 219 4.0 8.0 0.00 0.00 0.00 25 1009.7
20260505032206 68 154 2.0 7.0 0.00 0.00 0.00 26 1009.6
20260505031704 68 259 2.0 4.0 0.00 0.00 0.00 26 1009.6
20260505031200 68 263 2.0 7.0 0.00 0.00 0.00 26 1009.7
20260505030657 68 268 2.0 4.0 0.00 0.00 0.00 26 1009.7
20260505030153 68 261 2.0 4.0 0.00 0.00 0.00 26 1009.8
20260505025649 68 278 4.0 7.0 0.00 0.00 0.00 26 1009.7
20260505025148 68 273 4.0 6.0 0.00 0.00 0.00 26 1009.7
20260505024645 68 334 1.0 4.0 0.00 0.00 0.00 27 1009.5
20260505024142 69 265 3.0 4.0 0.00 0.00 0.00 26 1009.6
20260505023639 69 269 1.0 4.0 0.00 0.00 0.00 26 1009.6
20260505023136 70 250 1.0 4.0 0.00 0.00 0.00 25 1009.4
20260505022634 71 265 2.0 4.0 0.00 0.00 0.00 24 1009.4
20260505022131 71 226 2.0 6.0 0.00 0.00 0.00 24 1009.5
20260505021627 71 253 2.0 3.0 0.00 0.00 0.00 24 1009.3
20260505021124 72 242 2.0 6.0 0.00 0.00 0.00 23 1009.2
20260505020620 73 242 3.0 7.0 0.00 0.00 0.00 23 1009.3
20260505020116 73 281 2.0 4.0 0.00 0.00 0.00 22 1009.3
20260505015613 73 258 1.0 6.0 0.00 0.00 0.00 22 1009.0
20260505015110 73 230 3.0 4.0 0.00 0.00 0.00 22 1009.2
20260505014607 74 266 2.0 3.0 0.00 0.00 0.00 22 1009.3
20260505014104 74 240 1.0 4.0 0.00 0.00 0.00 22 1009.0
20260505013601 74 285 2.0 4.0 0.00 0.00 0.00 21 1009.2
20260505013058 74 272 2.0 6.0 0.00 0.00 0.00 21 1009.2
20260505012556 75 212 3.0 4.0 0.00 0.00 0.00 21 1009.4
20260505012053 75 238 2.0 3.0 0.00 0.00 0.00 21 1009.2
20260505011548 76 299 2.0 9.0 0.00 0.00 0.00 20 1009.0
20260505011046 76 252 2.0 7.0 0.00 0.00 0.00 20 1008.9
20260505010541 76 256 2.0 7.0 0.00 0.00 0.00 20 1009.2
20260505010038 76 278 2.0 7.0 0.00 0.00 0.00 19 1009.0
20260505005534 77 255 4.0 10.0 0.00 0.00 0.00 19 1009.0
20260505005032 77 281 7.0 13.0 0.00 0.00 0.00 19 1008.8
20260505004529 77 10 4.0 10.0 0.00 0.00 0.00 19 1009.2
20260505004026 78 253 7.0 10.0 0.00 0.00 0.00 19 1009.0
20260505003523 78 236 4.0 9.0 0.00 0.00 0.00 19 1008.9
20260505003020 78 254 4.0 10.0 0.00 0.00 0.00 19 1009.2
20260505002521 78 228 4.0 14.0 0.00 0.00 0.00 19 1009.4
20260505002020 79 237 5.0 13.0 0.00 0.00 0.00 19 1009.2
20260505001517 79 271 5.0 11.0 0.00 0.00 0.00 19 1009.5
20260505001014 79 248 6.0 11.0 0.00 0.00 0.00 19 1009.4
20260505000511 79 280 4.0 13.0 0.00 0.00 0.00 19 1009.4
20260505000009 79 212 6.0 11.0 0.00 0.00 0.00 19 1009.6
20260504235506 79 298 6.0 11.0 0.00 0.00 0.00 18 1009.4
20260504235002 79 264 7.0 11.0 0.00 0.00 0.00 18 1009.5
20260504234459 80 283 3.0 11.0 0.00 0.00 0.00 17 1009.4
20260504233956 80 14 3.0 14.0 0.00 0.00 0.00 17 1009.6
20260504233451 80 275 2.0 6.0 0.00 0.00 0.00 16 1009.4
20260504232949 80 277 6.0 13.0 0.00 0.00 0.00 16 1009.7
20260504232445 80 272 5.0 15.0 0.00 0.00 0.00 15 1009.5
20260504231943 80 275 4.0 7.0 0.00 0.00 0.00 12 1009.6
20260504231439 80 2 3.0 11.0 0.00 0.00 0.00 13 1009.7
20260504230935 80 245 3.0 11.0 0.00 0.00 0.00 12 1009.5
20260504230432 80 286 2.0 10.0 0.00 0.00 0.00 11 1009.6
20260504225931 80 309 6.0 15.0 0.00 0.00 0.00 11 1009.5
20260504225428 81 276 7.0 10.0 0.00 0.00 0.00 11 1009.7
20260504224925 81 290 7.0 11.0 0.00 0.00 0.00 11 1009.7
20260504224421 82 177 4.0 17.0 0.00 0.00 0.00 11 1009.6
20260504223919 82 141 4.0 7.0 0.00 0.00 0.00 12 1009.5
20260504223414 83 247 5.0 16.0 0.00 0.00 0.00 12 1009.7
20260504222910 83 249 8.0 11.0 0.00 0.00 0.00 11 1009.6
20260504222408 82 296 6.0 13.0 0.00 0.00 0.00 12 1009.7
20260504221906 81 36 4.0 17.0 0.00 0.00 0.00 11 1009.9
20260504221402 81 223 5.0 9.0 0.00 0.00 0.00 12 1009.7
20260504220900 82 288 6.0 13.0 0.00 0.00 0.00 12 1009.7
20260504220356 82 315 4.0 11.0 0.00 0.00 0.00 12 1009.6
20260504215853 82 215 6.0 13.0 0.00 0.00 0.00 12 1009.6
20260504215350 82 249 3.0 8.0 0.00 0.00 0.00 12 1009.8
20260504214846 82 348 4.0 9.0 0.00 0.00 0.00 12 1009.8
20260504214343 82 184 4.0 18.0 0.00 0.00 0.00 12 1009.9
20260504213839 82 308 6.0 8.0 0.00 0.00 0.00 13 1009.8
20260504213335 83 317 6.0 14.0 0.00 0.00 0.00 12 1009.8
20260504212833 83 239 3.0 16.0 0.00 0.00 0.00 13 1009.7
20260504212329 83 272 4.0 10.0 0.00 0.00 0.00 12 1009.6
20260504211827 84 257 11.0 15.0 0.00 0.00 0.00 12 1010.1
20260504211328 84 223 7.0 14.0 0.00 0.00 0.00 12 1010.1
20260504210825 83 277 4.0 15.0 0.00 0.00 0.00 13 1010.1
20260504210322 84 274 10.0 18.0 0.00 0.00 0.00 13 1010.2
20260504205820 83 232 6.0 10.0 0.00 0.00 0.00 14 1010.2
20260504205317 84 273 4.0 18.0 0.00 0.00 0.00 13 1010.3
20260504204815 84 312 7.0 9.0 0.00 0.00 0.00 14 1010.4
20260504204313 84 209 5.0 10.0 0.00 0.00 0.00 16 1010.4
20260504203813 84 282 6.0 10.0 0.00 0.00 0.00 16 1010.4
20260504203309 85 273 4.0 10.0 0.00 0.00 0.00 17 1010.6
20260504202804 85 307 4.0 8.0 0.00 0.00 0.00 18 1010.4
20260504202304 85 315 5.0 9.0 0.00 0.00 0.00 19 1010.7
20260504201758 83 218 3.0 11.0 0.00 0.00 0.00 20 1011.0
20260504201256 85 274 3.0 7.0 0.00 0.00 0.00 20 1010.6